Location: Unspecified
(0.0000°N, 0.0000°E)
Time: 06:30:48
(UTC+00:00)

NOAA 19 - Visible Passes

Search period start: 12 December 2019 00:00
Search period end: 22 December 2019 00:00
Orbit: 842 x 860 km, 99.2° (Epoch: 11 December)

Date Brightness Start Highest point End Pass type
(mag) Time Alt. Az. Time Alt. Az. Time Alt. Az.
12 Dec 7.5 04:32:04 10° NE 04:36:29 25° ESE 04:40:54 10° SSE visible
13 Dec 8.0 04:21:11 10° ENE 04:24:52 18° ESE 04:28:30 10° SE visible
14 Dec 8.3 04:10:47 10° ENE 04:13:13 13° ESE 04:15:38 10° SE visible
14 Dec 8.6 18:35:37 10° SW 18:37:54 13° WSW 18:40:10 10° W visible
15 Dec 8.2 18:22:40 10° SW 18:26:16 18° WSW 18:29:52 10° WNW visible
16 Dec 5.2 05:24:48 10° N 05:30:16 79° WNW 05:35:44 10° SSW visible
17 Dec 5.5 05:13:09 10° NNE 05:18:37 76° ESE 05:24:04 10° S visible
18 Dec 6.0 05:01:38 10° NNE 05:06:58 55° ESE 05:12:17 10° S visible
19 Dec 6.7 04:50:14 10° NE 04:55:18 40° ESE 05:00:23 10° S visible
20 Dec 7.3 04:38:59 10° NE 04:43:40 29° ESE 04:48:19 10° SSE visible
21 Dec 7.8 04:27:57 10° NE 04:32:01 21° ESE 04:36:04 10° SSE visible
